[ hide orbit diagram ]
For accurate long-term ephemerides, please instead use our Horizons system.This orbit viewer was implemented using two-body methods, and hence should not be used for determining accurate long-term trajectories (over several years or decades) or planetary encounter circumstances.
Orbital Elements at Epoch 2459000.5 (2020-May-31.0) TDB
Reference: JPL 40 (heliocentric ecliptic J2000)
Element | Value | Uncertainty (1-sigma) | Units |
e | .07665491749998334 | 3.5045e-08 | |
a | 3.000727966089371 | 1.6445e-08 | au |
q | 2.770707411408897 | 1.0613e-07 | au |
i | 10.38139311527131 | 4.265e-06 | deg |
node | 14.25385637457926 | 2.1148e-05 | deg |
peri | 286.1834060180296 | 3.5179e-05 | deg |
M | 203.679279502765 | 2.9728e-05 | deg |
tp | 2459824.927391860810 (2022-Sep-02.42739186) | 0.0001584 | TDB |
period | 1898.621373582661 5.20 | 1.5608e-05 4.273e-08 | d yr |
n | .1896112647887699 | 1.5587e-09 | deg/d |
Q | 3.230748520769845 | 1.7706e-08 | au |
|
| | Orbit Determination Parameters
Additional Information
|
[ hide covariance matrix ]
Orbital Elements at Epoch 2457231.5 (2015-Jul-28.0) TDB
Reference: JPL 40 (heliocentric ecliptic J2000)
Element | Value | Uncertainty (1-sigma) | Units |
e | .07590838935472434 | 3.5009e-08 | |
q | 2.775681567283497 | 1.0566e-07 | au |
tp | 2457918.662756649451 (2017-Jun-14.16275665) | 0.00015661 | TDB |
node | 14.2893741086048 | 2.1159e-05 | deg |
peri | 284.5735038050208 | 3.5359e-05 | deg |
i | 10.37661357477069 | 4.2626e-06 | deg |
|
| | Orbit Determination Parameters
Additional Information
|
Orbit Covariance (6×6)
|
|
e |
q |
tp |
node |
peri |
i |
e |
1.225621858305879E-15 |
-3.659917556208212E-15 |
5.067874105154468E-13 |
-1.381388712829293E-16 |
9.404108090847372E-14 |
1.078668269723857E-15 |
q |
-3.659917556208212E-15 |
1.11633100261946E-14 |
-1.066424739803066E-12 |
-6.884731351965923E-16 |
-2.186927291962749E-13 |
-3.949489069858983E-15 |
tp |
5.067874105154468E-13 |
-1.066424739803066E-12 |
2.452728321297727E-8 |
2.158279597851906E-11 |
4.451190572696395E-9 |
-5.658452839341947E-12 |
node |
-1.381388712829293E-16 |
-6.884731351965923E-16 |
2.158279597851906E-11 |
4.477160488496758E-10 |
-4.360778865987789E-10 |
-8.826789226668702E-12 |
peri |
9.404108090847372E-14 |
-2.186927291962749E-13 |
4.451190572696395E-9 |
-4.360778865987789E-10 |
1.250249820942421E-9 |
7.652003696280134E-12 |
i |
1.078668269723857E-15 |
-3.949489069858983E-15 |
-5.658452839341947E-12 |
-8.826789226668702E-12 |
7.652003696280134E-12 |
1.816982111067941E-11 |
|
Physical Parameter Table
Parameter |
Symbol |
Value |
Units |
Sigma |
Reference |
Notes |
absolute magnitude |
H |
12.4 |
|
n/a |
MPO365325 |
|
diameter |
diameter |
10.981 |
km |
0.267 |
urn:nasa:pds:neowise_diameters_albedos::2.0[mainbelt] (http://adsabs.harvard.edu/abs/2011ApJ...741...68M) |
|
geometric albedo |
albedo |
0.193 |
|
0.033 |
urn:nasa:pds:neowise_diameters_albedos::2.0[mainbelt] (http://adsabs.harvard.edu/abs/2011ApJ...741...68M) |
|
|
6357 Glushko (1976 SK3) Discovered 1976-Sep-24 by Chernykh, N. S. at Nauchnyj |
Reference: DISCOVERY.DB | Last Updated: 2003-08-29 |
|
[ hide close-approach data ]
Close-Approach Data ...sorted by Date/Time (TDB)
|
Date/Time (TDB) |
Time Uncertainty (days_HH:MM) |
Body |
Nominal Distance (au) |
Minimum Distance (au) |
Maximum Distance (au) |
V-relative (km/s) |
V-infinity (km/s) |
JD (TDB) |
Time Uncertainty (minutes) |
Semi-major axis (km) |
Semi-minor axis (km) |
range-LOV angle (deg) |
N-sigma |
BP |
Orbit Ref. |
Reference |
Modified |
1940-Dec-10 03:34 |
00:02 |
Jupiter |
1.97812763288518 |
1.97812726353082 |
1.97812800223966 |
4.04242861093926 |
3.93507826363154 |
2429973.648533212 |
1.77971331313406 |
53.9951508533538 |
14.6671916835532 |
-80.4239113321239 |
2652569.54548818 |
T |
40 |
CATAB v2.0f-lin.ifort 2020-Dec-18 02:26:37 |
2020-Dec-18 02:26 |
2024-Feb-21 20:36 |
< 00:01 |
Jupiter |
1.99228928127119 |
1.99228890203327 |
1.99228966050921 |
3.88784679409861 |
3.7769103727371 |
2460362.358080277 |
0.281962458045145 |
49.512531480749 |
12.5079990856155 |
-76.7911886010831 |
3785409.1117223 |
T |
40 |
CATAB v2.0f-lin.ifort 2020-Dec-18 02:26:37 |
2020-Dec-18 02:26 |
|
|